Terminal Aerodrome Forecast
Issued by NWS Charleston, WV

Current Version | Previous Version | Text Only | Print | Product List | Glossary Off
Versions: 1 2 3 4 5 6 7 8 9 10 11 12 13 14 15 16 17 18 19 20 21 22 23 24 25

000
FTUS41 KRLX 301700
TAFHTS
TAF
KHTS 301723Z 3018/0118 31005KT 6SM -SHRA BR BKN040 OVC050
     FM302000 33007KT 6SM BR BKN040
     FM010200 33006KT 6SM BR OVC030
     FM010600 32006KT 5SM -SHRA BR OVC035
     FM010800 31006KT 5SM BR OVC020
     FM011300 32005KT P6SM OVC020=

USA.gov is the U.S. government's official web portal to all federal, state and local government web resources and services.